www.pogodaiklimat.ru
ПОГОДА в Лабухе
Время
(UTC), дата
09 28.03
12 28.03
15 28.03
18 28.03
21 28.03
00 29.03
03 29.03
06 29.03
09 29.03
12 29.03
15 29.03
18 29.03
21 29.03
00 30.03
03 30.03
06 30.03
09 30.03
12 30.03
15 30.03
18 30.03
21 30.03
00 31.03
03 31.03
06 31.03
09 31.03
12 31.03
15 31.03
18 31.03
21 31.03
00 1.04
03 1.04
06 1.04
09 1.04
12 1.04
15 1.04
18 1.04
21 1.04
00 2.04
03 2.04
06 2.04
09 2.04
12 2.04
15 2.04
18 2.04
21 2.04
00 3.04
03 3.04
06 3.04
09 3.04
12 3.04
15 3.04
18 3.04
21 3.04
00 4.04
03 4.04
Ветер
(напр.,м/с)
Видим. Явления Облачность Т
(С)
Тd
(С)
f
(%)
Тe
(С)
Тes
(С)
Комфортность P
(гПа)
Po
(гПа)
Тmin
(С)
Tmax
(С)
R
(мм)
R24
(мм)
S
(см)
З 3 8000 м осадки на расстоянии 9/6 500 м
[Cb cap Ac As Cs]
+29.8 +24.6 74 +42 +42 опасность
перегрева
1007.3 1005.2 0.5
штиль 0 9000 м {дождь} 8/4 540 м
[Cu Sc Ac As Cs]
+27.1 +25.5 91 +40 +40 очень
душно
1009.2 1007.1 +32.4 0.5
штиль 0 9000 м 8/4 300 м
[Cu Sc Ac As Cs]
+25.8 +24.6 93 +36 +36 очень
душно
1009.8 1007.6
Ю 2 9000 м 8/5 500 м
[Cu Sc Ac As Cs]
+25.0 +24.0 94 +34 +34 очень
душно
1008.4 1006.2
СВ 1 9000 м 8/4 540 м
[Cu Sc Ac As Cs]
+24.8 +23.8 94 +34 +34 очень
душно
1008.5 1006.4
СЗ 1 6000 м слаб. ливневой дождь, в посл. час гроза 9/6 480 м
[Cb cap Ac As Ci sp]
+24.0 +23.3 96 +32 +35 очень
душно
1011.4 1009.2 +24.0 2
З 2 8000 м в посл. час дождь 9/5 480 м
[Cb cap Ac As Ci sp]
+26.2 +24.4 90 +37 +43 очень
душно
1010.2 1008.1 1
ЮЗ 3 9000 м {дождь} 9/5 500 м
[Cb cap Ac As Cs]
+28.6 +24.2 77 +40 +44 очень
душно
1007.7 1005.6 1
З 3 10 км 9/5 500 м
[Cb cap Ac As Cs]
+27.6 +24.4 83 +39 +39 очень
душно
1007.2 1005.1
СЗ 2 9000 м 8/4 540 м
[Cu Sc Ac As Cs]
+26.4 +24.9 91 +38 +38 очень
душно
1009.5 1007.3 +29.0
штиль 0 9000 м 8/4 540 м
[Cu Sc Ac trans Ci sp]
+25.0 +24.0 94 +34 +34 очень
душно
1009.4 1007.2
штиль 0 9000 м 8/4 540 м
[Cu Sc Ac trans Ci sp]
+24.2 +23.2 94 +32 +32 очень
душно
1008.6 1005.9
штиль 0 9000 м 8/4 540 м
[Cu Sc Ac trans Ci sp]
+24.0 +23.0 94 +32 +32 очень
душно
1008.1 1006.0
штиль 0 10 км 5/4 540 м
[Cu Sc Ac trans Ci sp]
+27.9 +24.5 82 +39 +45 очень
душно
1010.8 1008.7 +23.8 1
З 3 10 км 6/4 540 м
[Cu Sc Ac trans Cs]
+30.8 +24.2 68 +43 +52 опасность
перегрева
1009.6 1007.4
З 4 8000 м гроза без осадков 8/5 500 м
[Cb calv Ac As Ci sp]
+29.4 +24.2 74 +41 +45 опасность
перегрева
1007.3 1005.1
З 2 8000 м {дождь} 9/5 500 м
[Cb calv Ac As Ci sp]
+29.0 +25.3 80 +42 +42 опасность
перегрева
1007.8 1005.7 1
штиль 0 9000 м 9/5 500 м
[Cu Sc Ac As Ci sp]
+26.8 +25.3 92 +39 +39 очень
душно
1009.9 1007.7 +31.6 1
штиль 0 9000 м 8/4 540 м
[Cu Sc Ac As Ci sp]
+25.3 +23.8 91 +34 +34 очень
душно
1010.5 1008.3
штиль 0 8000 м слаб. дождь 8/4 540 м
[Cb calv Ac As Ci sp]
+24.6 +23.9 96 +34 +34 очень
душно
1009.4 1007.2 21
штиль 0 8000 м {дождь} 8/4 540 м
[Cu Sc Ac As Cs]
+24.4 +23.9 97 +33 +33 очень
душно
1009.9 1007.7 1
В 3 9000 м 6/4 570 м
[Cu Sc Ac As Cs]
+26.6 +25.1 91 +38 +42 очень
душно
1011.0 1008.9 +24.4 23
З 3 9000 м 8/4 540 м
[Cu Sc Ac As Cs]
+31.4 +23.9 64 +43 +50 опасность
перегрева
1009.7 1007.6
З 3 9000 м 8/4 540 м
[Cu Sc Ac As Cs]
+31.4 +23.9 64 +43 +47 опасность
перегрева
1009.7 1007.6
СВ 1 7000 м слаб. дождь 9/5 500 м
[Cb calv Ac As Cs]
+27.6 +25.7 89 +41 +41 опасность
перегрева
1008.5 1006.3 0.5
штиль 0 9000 м {дождь} 8/5 500 м
[Cb calv Ac As Cs]
+26.2 +25.5 96 +38 +38 очень
душно
1009.8 1007.6 +32.0 1
штиль 0 9000 м 9/5 500 м
[Cb calv Ac As Cs]
+25.4 +24.4 94 +35 +35 очень
душно
1010.3 1008.1
штиль 0 9000 м 9/5 500 м
[Cb calv Ac As Cs]
+24.2 +23.2 94 +32 +32 очень
душно
1008.0 1005.8
штиль 0 9000 м 8/4 500 м
[Cu Sc Ac As Cs]
+23.6 +22.9 96 +31 +31 очень
душно
1009.0 1006.8
СВ 1 10 км 9/4 540 м
[Cu Sc Ac trans Cs]
+26.4 +24.3 88 +37 +40 очень
душно
1011.0 1008.9 +23.6 2
З 3 10 км 8/4 540 м
[Cu Sc Ac As Cs]
+30.6 +25.5 74 +45 +52 опасность
перегрева
1010.0 1007.8
штиль 0 4000 м дождь 10/6 450 м
[Cb calv Ac As Ci sp]
+25.6 +24.6 94 +36 +40 очень
душно
1009.1 1006.9 22
штиль 0 8000 м 10/5 500 м
[Cb cap Ac As Cs]
+26.4 +24.9 91 +38 +38 очень
душно
1009.0 1006.8 3
штиль 0 8000 м 10/5 500 м
[Cb cap Ac As Cs]
+25.2 +24.5 96 +35 +35 очень
душно
1011.7 1009.5 +31.2 3
штиль 0 7000 м {дождь} 9/5 500 м
[Cb cap Ac As Ci sp]
+24.4 +23.7 96 +33 +33 очень
душно
1012.6 1010.4 2
штиль 0 8000 м {дождь} 9/5 540 м
[Cu Sc Ac As Ci sp]
+24.3 +23.6 96 +33 +33 очень
душно
1010.2 1008.0 2
штиль 0 8000 м слаб. дождь 9/5 500 м
[Cb calv Ac As Ci sp]
+24.0 +23.6 98 +33 +33 очень
душно
1010.7 1008.6 0.4
штиль 0 9000 м {дождь} 8/8 500 м
[]
+25.6 +24.1 91 +35 +37 очень
душно
1012.4 1010.2 +23.0 27
штиль 0 9000 м 8/3 540 м
[Cu Sc Ac As Ci sp]
+30.6 +22.1 61 +40 +53 опасность
солнечного
удара
1010.4 1008.2
З 2 10 км 8/4 540 м
[Cu Sc Ac As Cs]
+32.0 +24.0 63 +44 +49 опасность
перегрева
1008.0 1005.9
З 2 10 км 8/4 540 м
[Cu Sc Ac As Cs]
+30.2 +24.1 70 +42 +42 опасность
перегрева
1009.1 1006.9
В 1 10 км 9/4 540 м
[Cu Sc Ac As Cs]
+27.4 +24.8 86 +39 +39 очень
душно
1011.1 1008.9 +32.4
штиль 0 10 км 9/4 540 м
[Cu Sc Ac As Cs]
+26.0 +23.9 88 +36 +36 очень
душно
1011.1 1008.9
штиль 0 10 км 9/5 540 м
[Cu Sc Ac As Ci sp]
+24.5 +23.4 94 +33 +33 очень
душно
1008.6 1006.5
штиль 0 10 км 6/4 540 м
[Cu Sc Ac trans Cs]
+23.8 +22.5 92 +31 +31 очень
душно
1008.8 1006.7
СВ 2 10 км 5/1 570 м
[Cu med, cong Ac trans Ci sp]
+26.8 +24.7 88 +38 +44 очень
душно
1011.6 1009.4 +23.8
В 3 10 км 9/4 540 м
[Cu Sc Ac As Cs]
+30.4 +24.7 72 +43 +50 опасность
перегрева
1010.9 1008.7
СЗ 1 8000 м в посл. час гроза 9/5 500 м
[Cb cap Ac As Cs]
+28.6 +23.9 76 +40 +44 очень
душно
1009.1 1006.9
СВ 2 9000 м 9/5 540 м
[Cu Sc Ac As Cs]
+28.5 +25.2 82 +41 +41 опасность
перегрева
1009.0 1006.8
штиль 0 9000 м 8/4 540 м
[Cu Sc Ac As Cs]
+26.0 +24.2 90 +36 +36 очень
душно
1011.3 1009.1 +31.8
штиль 0 9000 м 6/4 540 м
[Cu Sc Ac As Cs]
+24.4 +23.4 94 +33 +33 очень
душно
1010.8 1008.6
штиль 0 9000 м 6/4 540 м
[Cu Sc Ac As Cs]
+24.2 +22.6 91 +32 +32 очень
душно
1009.7 1006.9
СВ 1 9000 м 6/4 540 м
[Cu Sc Ac As Cs]
+23.6 +22.6 94 +31 +31 очень
душно
1009.6 1007.5
штиль 0 10 км 4/3 540 м
[Cu Sc Ac trans Ci sp]
+28.4 +24.8 81 +41 +48 опасность
перегрева
1011.6 1009.4 +23.4
З 2 6000 м гроза без осадков 9/6 500 м
[Cb cap Ac As Cs]
+31.2 +24.9 69 +44 +50 опасность
перегрева
1011.0 1008.9
Местоположение метеостанции Лабуха (Индонезия): широта -0.63 долгота 127.50 высота над уровнем моря 3 м.
В архиве по умолчанию представлена погода в Лабухе за последнюю неделю. Архивные данные за месяц целиком и за предыдущие месяцы, начиная с января 2011 года, Вы можете получить, выбрав интересующий диапазон дат из раскрывающегося списка и нажав кнопку "Найти!".
*Определитесь, кто Вы:
Внимание! Время в таблицах - всемирное. Для получения местного времени необходимо прибавить поправку, которая равна 9 ч.
Смотрите также архив погоды в соседних городах и на ближайших метеорологических станциях:
Партнеры нашего сайта:      
Пояснения к столбцам:
  • Ветер - указаны скорость ветра в м/с - средняя за 10 мин, порывы в срок и между сроками (в фигурных скобках) и направление, откуда дует ветер: С - северный,
  • СВ - северо-восточный, В - восточный, ЮВ - юго-восточный, Ю - южный, ЮЗ - юго-западный, З - западный, СЗ - северо-западный.
  • Видимость - горизонтальная дальность видимости в метрах или километрах. При видимости от 1 до 10 км при отсутствии осадков обычно наблюдается дымка, при ухудшении видимости до 1 км и менее - туман. В сухую погоду видимость может ухудшаться дымом, пылью или мглою.
  • Явления - указаны атмосферные явления, наблюдавшиеся в срок или в последний час перед сроком; фигурными скобками обозначены явления, наблюдавшиеся между сроками (за 1-3 часа до срока); квадратными скобками обозначены град или гололедные отложения с указанием их диаметра в мм.
  • Облачность - указаны через наклонную черту общая и нижняя облачность в баллах и высота нижней границы облаков в метрах; квадратными скобками обозначены формы облаков: Ci - перистые, Cs - перисто-слоистые, Cc - перисто-кучевые, Ac - высококучевые, As - высокослоистые, Sc - слоисто-кучевые, Ns - слоисто-дождевые, Cu - кучевые, Cb - кучево-дождевые. Подробнее классификацию облаков см. в Атласе облаков (PDF).
  • T - Температура воздуха - температура, измеренная на высоте 2 м над землей.
  • Td - Температура точки росы - температура, при понижении до которой содержащийся в воздухе водяной пар достигнет насыщения.
  • f - Относительная влажность воздуха - влажноcть воздуха, измеренная на высоте 2 м над землей.
  • Te - Эффективная температура - температура, которую ощущает одетый по сезону человек в тени. Характеристика душности погоды. При расчете учитывается влияние влажности воздуха и скорости ветра на теплоощущения человека.
  • Tes - Эффективная температура на солнце - температура, которую ощущает человек, с поправкой на солнечный нагрев. Характеристика знойности погоды. Зависит от высоты солнца над горизонтом, облачности и скорости ветра. Ночью, в пасмурную погоду, а также при ветре 12 м/с и более поправка равна нулю.
  • P - Атмосферное давление - приведенное к уровню моря атмосферное давление.
  • Po - Атмосферное давление - измеренное на уровне метеостанции атмосферное давление.
  • Tmin - Минимальная температура - минимум температуры воздуха на высоте 2 м над землей.
  • Tmax - Максимальная температура - максимум температуры воздуха на высоте 2 м над землей.
  • R - Количество осадков - Количество выпавших осадков за период времени, мм. При наведении курсора мыши на число - период времени, за который выпало указанное количество осадков.
  • R24 - Количество осадков - Количество выпавших осадков за 24 часа, мм.
  • S - Снежный покров - Высота снежного покрова, см. При наведении курсора мыши на число - состояние снежного покрова и степень покрытия местности в баллах.